Terminal Aerodrome Forecast
Issued by NWS

Home | Current Version | Previous Version | Text Only | Print | Product List | Glossary On
Versions: 1 2 3 4 5 6 7 8 9 10 11 12 13 14 15 16 17 18 19 20 21 22 23
324
FTUS45 KTWC 132335
TAFOLS
TAF
KOLS 132335Z 1400/1424 23010KT P6SM SCT250
     FM140300 VRB03KT P6SM SCT250
     FM142100 30008KT P6SM SCT250=

USA.gov is the U.S. government's official web portal to all federal, state and local government web resources and services.